STARLINK-1131, 45047

Orbit data source: Space-Track

STARLINK-1131, 45047 is a payload satellite owned by SpaceX/Seattle (US) in LEO that was launched on Wed, 29 Jan 2020 UTC via an FALCON 9 launch vehicle from the Air Force Eastern Test Range (AFETR). Payload-class satellites include a variety of spacecraft equipped with specific instruments for various scientific and technological missions. These include communications satellites like Starlink; space stations such as the ISS; scientific satellites like the Hubble; Earth observation satellites from companies like Planet Labs, Umbra, and HawkEye 360; GPS; miniature CubeSats for education and research; and military/defense satellites.

Loading next visibility...
Identifier
45047, 2020-006D
Orbit
LEO
Country
Flag of USUS
Related business
Manufacturer
SpaceX/Seattle
Mission
Operational Commercial Communications
Bus & Motor
STARLINK, Unknown motor
Mass
260 kg wet, ~248 kg dry
Launch date (UTC)
2020-01-29 (6 years ago)
Launch vehicle
FALCON 9
Launch site
Air Force Eastern Test Range (AFETR)
Object type
Payload
Rocket body
Debris
Shape & HBR
Box + 1 Pan, 10.1 m
Radar Cross Section
13.562 m², Large (>1 m²)

Expand to show TLE details & history
Last TLE update: 5 hours ago

TLE from 5 hours ago
0 STARLINK-1131
1 45047U 20006D   26037.00002315  .00058889  00000-0  20381-2 0  9991
2 45047  53.1545  68.1208 0001302  90.5937   4.2975 15.29337383  5791
Epoch: 2026-02-06T00:00Z
TLE epoch observation values (Epoch: 2026-02-06T00:00:02.000Z)
Latitude
53.02884°
Longitude
30.10101°
Altitude
483.412 km
Speed
7.631 km/s
True Right ascension
11h 05m 00s
True Declination
52° 51' 25"
Sunlit
Object was in full shadow at epoch
Visualization orbit readout
Latitude
Unknown
Longitude
Unknown
Altitude
Unknown
Speed
Unknown
Apparent Right ascension
Unknown
Apparent Declination
Unknown
Sunlit
N/A
Visualization observer readout
Local Sidereal Time
06:58:11
Azimuth
Unknown
Elevation
Unknown
Doppler factor
Unknown
Orbital elements
Apogee altitude
478.942 km
Perigee altitude
477.156 km
Semi-major axis
6,856.186 km
Eccentricity
0.00013
Inclination
53.1545°
RAAN
68.1208°
Arg. of periapsis
90.5937°
True anomaly
4.29862°
Mean anomaly
4.2975°
Eccentric anomaly
4.29806°
Mean motion
3.82313 °/min
Orbital period
94.16 mins
BSTAR
0.0020381
Loading maneuver chart data...
Computing Atmospheric mass density...

Documentation

Showing up to 5 results
|